[[{"header":{"parameterUnit":"m.s-1","parameterCategory":1,"la1":30.2991,"la2":30.254,"lo1":-89.0895,"lo2":-89.0444,"dy":0.0017,"dx":0.0017,"nx":28,"ny":28,"refTime":"2025-08-24T09:00:00:Z","depth":0,"parameterNumber":2,"parameterNumberName":"U-component_of_WINDS"},"data":[0,0,0,0,0,0,0,0,0,0,0,0,0,0,0,0,0,0,0,0,0,0,0,0,0,0,0,0,0,0,0,0,0,0,0,0,0,0,0,0,0,0,0,0,0,0,0,0,0,0,0,0,0,0,0,0,0,0,3.704,3.7041,0,3.7162,3.7164,3.7165,3.7088,3.7084,3.7081,3.7077,3.7206,3.7213,3.7219,0,0,0,0,0,0,0,0,0,0,0,0,0,3.6742,3.6748,3.7039,3.7041,3.7043,3.7162,3.7164,3.7166,3.7089,3.7084,3.708,3.7076,3.7204,3.7212,3.722,0,0,0,0,0,0,0,0,0,0,0,0,0,3.6869,3.675,3.7039,3.7019,3.7018,3.7162,3.7164,3.7166,3.709,3.7084,3.7079,3.7074,3.7201,3.7211,3.7221,3.7393,0,0,3.7252,3.7257,0,0,0,0,0,0,0,0,3.6862,3.688,3.702,3.702,3.702,3.7104,3.7106,3.7242,3.7091,3.7062,3.7077,3.7071,3.7177,3.7189,3.7224,3.7399,3.7405,3.7253,3.7259,3.7264,3.7267,0,0,0,0,0,0,0,3.6853,3.6874,3.7088,3.7022,3.7022,3.7004,3.7016,3.7132,3.7149,3.7064,3.7059,3.7075,3.7176,3.7214,3.7226,3.7407,3.7253,3.7262,3.7268,3.7272,3.7731,3.7737,0,0,0,0,0,0,3.6845,3.6867,3.7084,3.7092,3.6926,3.7014,3.7027,3.7083,3.7147,3.7152,3.7079,3.7071,3.7199,3.7214,3.723,3.7437,3.7264,3.7273,3.7279,3.7725,3.7733,3.7739,0,0,0,0,0,0,3.6839,3.6865,3.7079,3.6978,3.7004,3.7025,3.7088,3.7088,3.7126,3.7158,3.7161,3.7115,3.7196,3.7216,3.7353,3.744,3.7278,3.7287,3.7718,3.7728,3.7736,3.785,0,0,0,0,0,0,3.6831,3.6864,3.6928,3.698,3.701,3.7199,3.7093,3.7094,3.7144,3.7134,3.7193,3.7197,3.7193,3.7339,3.7364,3.7451,3.7295,3.771,3.7722,3.7733,3.7839,3.7862,3.7882,0,0,0,0,0,3.6821,3.6956,3.6932,3.6959,3.7091,3.7204,3.7221,3.7213,3.7151,3.7217,3.7238,3.7195,3.7427,3.7353,3.7381,3.7473,3.7705,3.7719,3.7732,3.7829,3.7858,3.7882,0,0,0,0,0,0,3.6914,3.6962,3.6936,3.7092,3.7145,3.7191,3.7273,3.7243,3.7315,3.7303,3.729,3.7304,3.7448,3.7474,3.7391,3.7644,3.7556,3.7576,3.7621,3.7648,3.7669,3.7659,3.7304,0,0,0,0,0,3.6953,3.704,3.7078,3.7212,3.7239,3.7253,3.7302,3.7291,3.7345,3.7367,3.7398,3.7453,3.7538,3.7595,3.7675,3.7843,3.7855,3.792,3.7941,3.7959,3.7976,3.8068,3.8097,3.7784,3.7784,3.7784,0,0,3.7033,3.7071,3.7126,3.7231,3.7271,3.7363,3.7272,3.7372,3.7441,3.7383,3.7514,3.7539,3.76,3.7754,3.7823,3.778,3.8066,3.7976,3.799,3.7998,3.8085,3.8115,3.8141,3.7793,3.7792,3.779,0,0,3.7227,3.7264,3.738,3.7422,3.7482,3.749,3.7519,3.7571,3.7585,3.7716,3.7675,3.7757,3.7904,3.7949,3.7992,3.8206,3.817,3.8232,3.8345,3.8435,3.846,3.8481,3.8558,3.8586,3.8249,3.825,3.825,0,3.732,3.7455,3.7443,3.7548,3.7596,3.7547,3.7665,3.7707,3.7792,3.7826,3.7777,3.7961,3.7999,3.8163,3.8216,3.8252,3.8284,3.8225,3.8457,3.8479,3.8499,3.8572,3.8601,3.8257,3.8256,3.8255,3.8255,0,3.7567,3.7662,3.7748,3.7831,3.7889,3.7999,3.8006,3.8066,3.8051,3.8065,3.82,3.8244,3.8333,3.8371,3.8358,3.8535,3.8506,3.8458,3.8369,3.8536,3.8604,3.8632,3.8267,3.8265,3.8263,3.8261,0,0,3.7821,3.7896,3.7928,3.7965,3.803,3.8104,3.8214,3.83,3.8352,3.8413,3.8505,3.8632,3.8588,3.8636,3.8627,3.8706,3.8874,3.8648,3.8649,3.8688,3.9073,3.9108,3.9141,3.8851,3.8856,3.8861,3.9067,0,3.8018,3.8208,3.8201,3.8379,3.8467,3.8424,3.852,3.8571,3.8587,3.8666,3.8685,3.8774,3.8709,3.8738,3.8814,3.8837,3.8951,3.8822,3.8938,3.8942,3.8923,3.9176,3.9214,3.9407,3.9094,3.9099,3.9102,0,3.8273,3.8342,3.8528,3.8581,3.8618,3.8704,3.8783,3.8859,3.8917,3.8923,3.8979,3.8958,3.9071,3.8981,3.9137,3.905,3.9097,3.9116,3.9123,3.9133,3.9031,3.9193,3.9468,3.9497,3.9144,3.914,3.9137,0,3.844,3.8579,3.8709,3.8743,3.8808,3.8869,3.89,3.8952,3.9005,3.9075,3.9109,3.9192,3.9238,3.9303,3.9306,3.924,3.9464,3.9374,3.9473,3.9474,3.9521,3.9518,3.9808,3.9553,3.9553,3.9552,3.9552,0,3.866,3.8776,3.8785,3.8865,3.8994,3.8986,3.9115,3.9139,3.9187,3.9272,3.924,3.9321,3.932,3.9403,3.9406,3.9535,3.9556,3.9566,3.9565,3.9568,3.9567,3.9598,3.9585,3.956,3.9558,3.9557,3.9556,0,3.8867,3.8878,3.9016,3.9067,3.9083,3.9176,3.922,3.9297,3.9311,3.9419,3.9444,3.9467,3.9563,3.9573,3.9685,3.9687,3.9843,3.9829,3.9823,3.9821,3.992,3.991,4.0239,4.0282,4.0,4.0003,4.0005,0,3.9007,3.9095,3.9155,3.921,3.9243,3.9331,3.9385,3.9382,3.944,3.9514,3.9582,3.9675,3.9748,3.9904,3.9932,4.0018,4.0005,4.0114,4.0017,4.0018,4.0006,4.0001,4.001,4.0133,4.0136,4.0138,4.014,0,3.9253,3.9255,3.9333,3.9414,3.9479,3.9543,3.9603,3.965,3.9654,3.9721,3.9819,3.9876,3.999,4.0083,4.0168,4.0201,4.0173,4.0171,4.0199,4.0202,4.0195,4.02,3.9874,4.0163,4.0161,4.0159,4.0158,4.0157,3.9431,3.9507,3.9562,3.9651,3.9696,3.9753,3.9828,3.9852,3.9933,4.0025,4.0019,4.0127,4.0185,4.0296,4.0335,4.0421,4.0384,4.0424,4.0434,4.0444,4.0454,4.0183,4.0436,4.0436,4.0435,4.0434,4.0434,0,3.9676,3.9709,3.9791,3.9876,3.9946,3.9913,3.9978,4.004,4.0135,4.0191,4.0264,4.0377,4.0468,4.0504,4.0593,4.0654,4.0644,4.0678,4.0673,4.0681,4.0481,4.0448,4.0685,4.0685,4.0685,4.0685,4.0685,4.0685,3.9811,3.9939,3.9948,4.0098,4.0131,4.0236,4.0276,4.033,4.0374,4.0502,4.0577,4.0599,4.0648,4.074,4.0823,4.0831,4.0865,4.0905,4.0908,4.072,4.0695,4.0671,4.064,4.0913,4.0913,4.1101,4.1102,4.1104]},{"header":{"parameterUnit":"m.s-1","parameterCategory":1,"la1":30.2991,"la2":30.254,"lo1":-89.0895,"lo2":-89.0444,"dy":0.0017,"dx":0.0017,"nx":28,"ny":28,"refTime":"2025-08-24T09:00:00:Z","depth":0,"parameterNumber":3,"parameterNumberName":"V-component_of_WINDS"},"data":[0,0,0,0,0,0,0,0,0,0,0,0,0,0,0,0,0,0,0,0,0,0,0,0,0,0,0,0,0,0,0,0,0,0,0,0,0,0,0,0,0,0,0,0,0,0,0,0,0,0,0,0,0,0,0,0,0,0,0.3545,0.3545,0,0.3531,0.353,0.353,0.3512,0.3512,0.3512,0.3511,0.3497,0.3497,0.3497,0,0,0,0,0,0,0,0,0,0,0,0,0,0.3558,0.3558,0.3545,0.3545,0.3545,0.3531,0.353,0.353,0.3512,0.3512,0.3512,0.3511,0.3497,0.3497,0.3497,0,0,0,0,0,0,0,0,0,0,0,0,0,0.3549,0.3558,0.3545,0.3534,0.3533,0.3531,0.353,0.353,0.3512,0.3512,0.3511,0.3511,0.3497,0.3497,0.3497,0.3505,0,0,0.3497,0.3497,0,0,0,0,0,0,0,0,0.3549,0.3548,0.3536,0.3535,0.3533,0.3523,0.353,0.3522,0.3512,0.352,0.3511,0.3511,0.3506,0.3505,0.3504,0.3504,0.3504,0.3497,0.3497,0.3497,0.3496,0,0,0,0,0,0,0,0.355,0.3549,0.3539,0.3536,0.3534,0.353,0.3528,0.3528,0.3516,0.3519,0.3518,0.3517,0.3505,0.3504,0.3503,0.3503,0.3497,0.3497,0.3496,0.3496,0.3511,0.3511,0,0,0,0,0,0,0.3552,0.355,0.354,0.3539,0.354,0.353,0.3528,0.3527,0.3516,0.3514,0.3517,0.3516,0.3504,0.3503,0.3503,0.3511,0.3497,0.3496,0.3496,0.351,0.3511,0.3511,0,0,0,0,0,0,0.3552,0.3551,0.354,0.3544,0.3542,0.353,0.3529,0.3526,0.3525,0.3514,0.3512,0.3517,0.3504,0.3503,0.3505,0.3511,0.3496,0.3496,0.351,0.351,0.3511,0.3529,0,0,0,0,0,0,0.3553,0.3552,0.3554,0.3544,0.3542,0.3542,0.3529,0.3527,0.3524,0.3523,0.3514,0.3512,0.3503,0.3505,0.3504,0.351,0.3496,0.3509,0.351,0.3511,0.3528,0.353,0.3532,0,0,0,0,0,0.3553,0.356,0.3554,0.3553,0.3545,0.3543,0.3541,0.3531,0.3525,0.3528,0.3521,0.3512,0.351,0.3505,0.3505,0.351,0.3509,0.351,0.3511,0.3527,0.3529,0.3532,0,0,0,0,0,0,0.3571,0.3558,0.3552,0.3555,0.355,0.3539,0.3542,0.3535,0.3532,0.353,0.3518,0.3516,0.352,0.3515,0.351,0.3518,0.3508,0.3509,0.352,0.3523,0.3525,0.3526,0.3496,0,0,0,0,0,0.3575,0.3574,0.3563,0.3567,0.3565,0.3554,0.3553,0.3546,0.354,0.3538,0.3531,0.3526,0.3524,0.3523,0.3521,0.3527,0.3525,0.3531,0.3533,0.3535,0.3536,0.3539,0.3541,0.3515,0.3515,0.3515,0,0,0.3584,0.3577,0.3577,0.357,0.3566,0.3565,0.3552,0.3552,0.3552,0.3538,0.3539,0.3534,0.3528,0.3532,0.3533,0.3528,0.3543,0.3536,0.3538,0.3538,0.354,0.3543,0.3545,0.3515,0.3515,0.3515,0,0,0.36,0.3594,0.3597,0.3592,0.3585,0.3578,0.3579,0.357,0.3566,0.3567,0.3556,0.3556,0.3553,0.3549,0.3547,0.3562,0.3554,0.3562,0.3574,0.3577,0.3579,0.3581,0.3586,0.3589,0.3563,0.3563,0.3563,0,0.3611,0.361,0.3599,0.36,0.3598,0.3585,0.3588,0.3584,0.3577,0.3576,0.357,0.3567,0.3562,0.3565,0.3569,0.3567,0.3568,0.3563,0.3579,0.3581,0.3583,0.3588,0.359,0.3564,0.3564,0.3564,0.3564,0,0.3625,0.3625,0.3628,0.3621,0.3619,0.3621,0.3611,0.361,0.3604,0.3597,0.3599,0.3593,0.3589,0.3589,0.3583,0.3592,0.3589,0.3582,0.3572,0.3586,0.3591,0.3593,0.3565,0.3565,0.3565,0.3564,0,0,0.3651,0.3639,0.364,0.3637,0.3629,0.3628,0.363,0.3626,0.3626,0.3622,0.3623,0.3622,0.3615,0.3612,0.3605,0.3608,0.3621,0.3601,0.36,0.3605,0.3631,0.3637,0.3639,0.3616,0.3616,0.3617,0.3632,0,0.3665,0.3667,0.3658,0.3662,0.3662,0.365,0.3652,0.3647,0.3641,0.364,0.3634,0.3633,0.3625,0.3623,0.3625,0.3619,0.3626,0.3618,0.3617,0.3618,0.3619,0.3642,0.3647,0.3662,0.3634,0.3634,0.3634,0,0.3682,0.3679,0.3683,0.3675,0.3674,0.3676,0.3672,0.3672,0.3666,0.3662,0.366,0.3651,0.3653,0.3644,0.3646,0.3641,0.364,0.3637,0.3637,0.3637,0.3627,0.3642,0.3667,0.3669,0.3637,0.3637,0.3637,0,0.3701,0.3697,0.37,0.3697,0.3688,0.3689,0.3686,0.368,0.3679,0.3676,0.3675,0.3672,0.3671,0.3669,0.3661,0.3655,0.3664,0.3654,0.3661,0.3661,0.3663,0.3663,0.3688,0.3663,0.3663,0.3663,0.3663,0,0.3717,0.3721,0.3708,0.3709,0.3713,0.3703,0.3706,0.3702,0.3697,0.3697,0.3687,0.3688,0.3677,0.3677,0.367,0.3673,0.3673,0.367,0.3668,0.3671,0.3671,0.367,0.3669,0.3664,0.3663,0.3663,0.3663,0,0.3739,0.373,0.3732,0.3723,0.3721,0.3724,0.3717,0.3718,0.3712,0.3713,0.3713,0.3704,0.3703,0.3694,0.3692,0.3688,0.3694,0.369,0.3695,0.3694,0.3702,0.3701,0.3727,0.373,0.3703,0.3703,0.3703,0,0.375,0.3752,0.3744,0.3743,0.374,0.374,0.3738,0.3729,0.3728,0.3722,0.3725,0.3723,0.3721,0.3721,0.3714,0.3712,0.3709,0.3718,0.3708,0.3711,0.3709,0.3709,0.3709,0.372,0.372,0.372,0.3721,0,0.3771,0.3767,0.3765,0.3762,0.3761,0.3759,0.3755,0.3756,0.3745,0.3745,0.3744,0.3743,0.374,0.3739,0.3736,0.3733,0.3725,0.3724,0.3725,0.3728,0.3731,0.373,0.3701,0.3723,0.3723,0.3723,0.3723,0.3722,0.3787,0.3789,0.3784,0.3783,0.3779,0.3777,0.3777,0.3772,0.3771,0.3768,0.3763,0.3763,0.3758,0.3754,0.3751,0.3751,0.3746,0.3749,0.3749,0.375,0.3752,0.3731,0.3751,0.3751,0.375,0.375,0.375,0,0.3808,0.3804,0.3803,0.3799,0.3798,0.3791,0.3788,0.3787,0.3788,0.3784,0.3783,0.3782,0.3781,0.3775,0.3773,0.3775,0.3771,0.3774,0.3774,0.3774,0.3756,0.3755,0.3777,0.3777,0.3777,0.3777,0.3777,0.3777,0.3819,0.3821,0.3817,0.3818,0.3814,0.3814,0.3812,0.381,0.3807,0.3807,0.3806,0.3802,0.3797,0.3795,0.3794,0.3793,0.3793,0.3797,0.3794,0.3777,0.3775,0.3772,0.3771,0.3797,0.3797,0.3812,0.3812,0.3812]}]]